Weather History for Denver Centennial, CO

Change the Weather History Date:

Thursday, February 14, 2013

  Actual Average Record
Temperature  
Mean Temperature 28 °F -  
Max Temperature 38 °F 44 °F 64 °F (1999)
Min Temperature 18 °F 20 °F 5 °F (2007)
Degree Days  
Heating Degree Days 37    
Month to date heating degree days 440  
Moisture  
Dew Point 17 °F    
Average Humidity 66    
Maximum Humidity 92    
Minimum Humidity 40    
Precipitation  
Precipitation 0.01 in - - ()
Month to date precipitation 0.31  
Year to date precipitation 0.44  
Sea Level Pressure  
Sea Level Pressure 30.22 in    
Wind  
Wind Speed 9 mph (ENE)    
Max Wind Speed 28 mph    
Max Gust Speed 37 mph    
Visibility 7 miles    
Events Snow    
Averages and records for this station are not official NWS values.
T = Trace of Precipitation, MM = Missing Value Source: NWS Daily Summary

Daily Weather History Graph

Daily Weather History Graph

Search for Another Location

Airport:

Trip Planner

Search our weather history database for the weather conditions in past years. The results will help you decide how hot, cold, wet, or windy it might be!

Date:

Astronomy

Feb. 14, 2013 Rise Set
Actual Time 6:52 AM MST 5:35 PM MST
Civil Twilight 6:24 AM MST 6:02 PM MST
Nautical Twilight 5:53 AM MST 6:34 PM MST
Astronomical Twilight 5:22 AM MST 7:05 PM MST
Moon 8:57 AM MST (2/14) 10:39 PM MST (2/14)
Length of Visible Light 11h 37m
Length of Day
10h 42m
Waxing Crescent, 22% of the Moon is Illuminated
Feb 14
Waxing Crescent
Feb 17
First Quarter
Feb 25
Full
Mar 4
Last Quarter
Mar 11
New

Hourly Weather History & Observations

Time (MST) Temp. Windchill Dew Point Humidity Pressure Visibility Wind Dir Wind Speed Gust Speed Precip Events Conditions
12:53 AM 30.0 °F 24.1 °F 14.0 °F 51% 30.03 in 10.0 mi SSE 5.8 mph - N/A   Scattered Clouds
1:53 AM 28.9 °F 19.8 °F 12.9 °F 51% 30.02 in 10.0 mi SSE 10.4 mph - N/A   Scattered Clouds
2:53 AM 27.0 °F 17.3 °F 15.1 °F 61% 30.04 in 10.0 mi SE 10.4 mph - N/A   Clear
3:53 AM 25.0 °F 15.5 °F 17.1 °F 72% 30.04 in 10.0 mi SE 9.2 mph - N/A   Scattered Clouds
4:53 AM 25.0 °F 19.3 °F 19.0 °F 78% 30.06 in 10.0 mi SSE 4.6 mph - N/A   Mostly Cloudy
5:53 AM 26.1 °F 16.8 °F 19.9 °F 78% 30.07 in 10.0 mi SSE 9.2 mph - N/A   Mostly Cloudy
6:53 AM 25.0 °F 19.3 °F 18.0 °F 75% 30.08 in 10.0 mi South 4.6 mph - N/A   Mostly Cloudy
7:53 AM 27.0 °F 21.6 °F 16.0 °F 63% 30.10 in 10.0 mi South 4.6 mph - N/A   Mostly Cloudy
8:53 AM 34.0 °F 28.8 °F 14.0 °F 44% 30.10 in 10.0 mi West 5.8 mph - N/A   Mostly Cloudy
9:53 AM 35.1 °F 32.2 °F 16.0 °F 46% 30.13 in 10.0 mi East 3.5 mph - N/A   Mostly Cloudy
10:53 AM 37.9 °F 30.0 °F 15.1 °F 39% 30.16 in 10.0 mi North 12.7 mph - N/A   Mostly Cloudy
11:39 AM 26.6 °F 11.7 °F 21.2 °F 80% 30.15 in 3.0 mi NNE 24.2 mph 34.5 mph 0.00 in Snow Light Snow
11:53 AM 25.0 °F 9.9 °F 21.0 °F 85% 30.29 in 3.0 mi NNE 23.0 mph 29.9 mph 0.00 in Snow Light Snow
12:04 PM 24.8 °F 11.1 °F 21.2 °F 86% 30.17 in 2.0 mi NNE 18.4 mph 25.3 mph 0.00 in Snow Light Snow
12:32 PM 24.8 °F 13.4 °F 21.2 °F 86% 30.18 in 0.8 mi NNE 12.7 mph - 0.00 in Snow Light Snow
12:53 PM 21.9 °F 9.8 °F 19.9 °F 92% 30.32 in 0.8 mi NNE 12.7 mph 23.0 mph 0.01 in Snow Light Snow
1:34 PM 24.8 °F 12.9 °F 19.4 °F 80% 30.19 in 1.0 mi NNE 13.8 mph - 0.00 in Snow Light Snow
1:53 PM 25.0 °F 13.6 °F 19.9 °F 81% 30.33 in 1.8 mi North 12.7 mph - 0.00 in Snow Light Snow
2:35 PM 24.8 °F 14.6 °F 19.4 °F 80% 30.21 in 1.0 mi NNE 10.4 mph - 0.00 in Snow Light Snow
2:53 PM 24.1 °F 15.2 °F 19.9 °F 84% 30.36 in 1.5 mi NE 8.1 mph - 0.00 in Snow Light Snow
3:10 PM 23.0 °F 13.1 °F 19.4 °F 86% 30.22 in 2.5 mi NE 9.2 mph - 0.00 in Snow Light Snow
3:17 PM 23.0 °F 13.1 °F 19.4 °F 86% 30.23 in 4.0 mi NNE 9.2 mph - 0.00 in Snow Light Snow
4:53 PM 23.0 °F 15.8 °F 17.1 °F 78% 30.38 in 7.0 mi NE 5.8 mph - 0.00 in   Overcast
5:53 PM 21.9 °F 17.2 °F 17.1 °F 82% 30.38 in 10.0 mi East 3.5 mph - N/A   Overcast
6:53 PM 21.9 °F - 16.0 °F 78% 30.39 in 10.0 mi Calm Calm - N/A   Overcast
7:53 PM 23.0 °F - 15.1 °F 72% 30.39 in 10.0 mi Calm Calm - N/A   Mostly Cloudy
8:53 PM 21.9 °F - 12.0 °F 66% 30.37 in 10.0 mi Calm Calm - N/A   Mostly Cloudy
9:53 PM 19.9 °F 13.4 °F 12.0 °F 71% 30.35 in 10.0 mi SSE 4.6 mph - N/A   Mostly Cloudy
10:53 PM 19.0 °F 9.0 °F 10.9 °F 71% 30.33 in 10.0 mi SSE 8.1 mph - N/A   Mostly Cloudy
11:53 PM 18.0 °F 5.4 °F 10.9 °F 74% 30.38 in 10.0 mi SSE 11.5 mph - N/A   Mostly Cloudy